Time,TemperatureF,DewpointF,PressureIn,WindDirection,WindDirectionDegrees,WindSpeedMPH,WindSpeedGustMPH,Humidity,HourlyPrecipIn,Conditions,Clouds,dailyrainin,SoftwareType,DateUTC
2013-08-22 00:00:00,74.3,69.2,0.00,ESE,112,11.8,11.8,84,0.00,,,0.00,VWS V13.00,2013-08-22 04:00:00,
2013-08-22 00:01:00,74.3,69.2,0.00,SSE,158,9.6,9.6,84,0.00,,,0.00,VWS V13.00,2013-08-22 04:01:00,
2013-08-22 00:02:00,74.3,69.2,0.00,SSE,158,9.6,9.6,84,0.00,,,0.00,VWS V13.00,2013-08-22 04:02:00,
2013-08-22 00:07:00,74.1,68.6,0.00,South,180,9.6,11.6,83,0.00,,,0.00,VWS V13.00,2013-08-22 04:07:00,
2013-08-22 00:12:00,74.1,69.0,0.00,South,180,8.0,11.6,84,0.00,,,0.00,VWS V13.00,2013-08-22 04:12:00,
2013-08-22 00:17:00,74.1,69.0,0.00,SSE,158,9.3,12.7,84,0.00,,,0.00,VWS V13.00,2013-08-22 04:17:00,
2013-08-22 00:20:00,74.1,68.6,0.00,ESE,112,13.4,13.4,83,0.00,,,0.00,VWS V13.00,2013-08-22 04:20:00,
2013-08-22 00:22:00,74.1,68.6,0.00,SE,135,5.1,13.4,83,0.00,,,0.00,VWS V13.00,2013-08-22 04:22:00,
2013-08-22 00:27:00,74.1,68.6,0.00,SSE,158,14.7,14.7,83,0.00,,,0.00,VWS V13.00,2013-08-22 04:27:00,
2013-08-22 00:32:00,74.1,68.6,0.00,SSE,158,11.4,14.7,83,0.00,,,0.00,VWS V13.00,2013-08-22 04:32:00,
2013-08-22 00:37:00,74.1,68.6,0.00,SSE,158,10.2,14.7,83,0.00,,,0.00,VWS V13.00,2013-08-22 04:37:00,
2013-08-22 00:40:00,74.1,68.3,0.00,SE,135,7.1,14.7,82,0.00,,,0.00,VWS V13.00,2013-08-22 04:40:00,
2013-08-22 00:42:00,74.1,68.3,0.00,SE,135,7.1,7.1,82,0.00,,,0.00,VWS V13.00,2013-08-22 04:42:00,
2013-08-22 00:47:00,74.1,68.3,0.00,SSE,158,10.5,10.5,82,0.00,,,0.00,VWS V13.00,2013-08-22 04:47:00,
2013-08-22 00:52:00,74.1,68.3,0.00,South,180,10.9,10.9,82,0.00,,,0.00,VWS V13.00,2013-08-22 04:52:00,
2013-08-22 00:57:00,74.1,68.6,0.00,South,180,8.9,10.9,83,0.00,,,0.00,VWS V13.00,2013-08-22 04:57:00,
2013-08-22 01:00:00,74.1,68.6,0.00,SSE,158,9.3,10.9,83,0.00,,,0.00,VWS V13.00,2013-08-22 05:00:00,
2013-08-22 01:02:00,74.1,68.6,0.00,SSE,158,9.3,9.3,83,0.00,,,0.00,VWS V13.00,2013-08-22 05:02:00,
2013-08-22 01:07:00,74.1,68.6,0.00,South,180,12.9,12.9,83,0.00,,,0.00,VWS V13.00,2013-08-22 05:07:00,
2013-08-22 01:12:00,74.1,69.0,0.00,South,180,8.5,17.2,84,0.00,,,0.00,VWS V13.00,2013-08-22 05:12:00,
2013-08-22 01:17:00,74.1,69.0,0.00,SSE,158,12.9,17.2,84,0.00,,,0.00,VWS V13.00,2013-08-22 05:17:00,
2013-08-22 01:20:00,73.9,68.8,0.00,SSE,158,9.6,17.2,84,0.00,,,0.00,VWS V13.00,2013-08-22 05:20:00,
2013-08-22 01:22:00,73.9,69.1,0.00,South,180,14.9,14.9,85,0.00,,,0.00,VWS V13.00,2013-08-22 05:22:00,
2013-08-22 01:27:00,73.9,69.1,0.00,South,180,8.2,14.9,85,0.00,,,0.00,VWS V13.00,2013-08-22 05:27:00,
2013-08-22 01:32:00,73.9,69.1,0.00,South,180,11.8,14.9,85,0.00,,,0.00,VWS V13.00,2013-08-22 05:32:00,
2013-08-22 01:37:00,73.9,69.1,0.00,SSE,158,10.5,16.5,85,0.00,,,0.00,VWS V13.00,2013-08-22 05:37:00,
2013-08-22 01:40:00,73.7,68.9,0.00,South,180,13.1,16.5,85,0.00,,,0.00,VWS V13.00,2013-08-22 05:40:00,
2013-08-22 01:42:00,73.7,69.3,0.00,SSE,158,13.1,13.1,86,0.00,,,0.00,VWS V13.00,2013-08-22 05:42:00,
2013-08-22 01:47:00,73.7,69.3,0.00,SSE,158,9.1,13.1,86,0.00,,,0.00,VWS V13.00,2013-08-22 05:47:00,
2013-08-22 01:52:00,73.7,69.3,0.00,SSE,158,11.6,15.4,86,0.00,,,0.00,VWS V13.00,2013-08-22 05:52:00,
2013-08-22 01:57:00,73.5,69.1,0.00,South,180,10.5,15.4,86,0.00,,,0.00,VWS V13.00,2013-08-22 05:57:00,
2013-08-22 02:00:00,73.5,69.4,0.00,SE,135,1.7,15.4,87,0.00,,,0.00,VWS V13.00,2013-08-22 06:00:00,
2013-08-22 02:02:00,73.5,69.4,0.00,SE,135,1.7,1.7,87,0.00,,,0.00,VWS V13.00,2013-08-22 06:02:00,
2013-08-22 02:07:00,73.5,69.4,0.00,South,180,11.8,12.0,87,0.00,,,0.00,VWS V13.00,2013-08-22 06:07:00,
2013-08-22 02:12:00,73.5,69.4,0.00,SSE,158,14.3,14.3,87,0.00,,,0.00,VWS V13.00,2013-08-22 06:12:00,
2013-08-22 02:17:00,73.5,69.4,0.00,South,180,11.4,14.3,87,0.00,,,0.00,VWS V13.00,2013-08-22 06:17:00,
2013-08-22 02:20:00,73.4,69.3,0.00,SSE,158,11.6,14.3,87,0.00,,,0.00,VWS V13.00,2013-08-22 06:20:00,
2013-08-22 02:22:00,73.4,69.3,0.00,South,180,12.7,12.7,87,0.00,,,0.00,VWS V13.00,2013-08-22 06:22:00,
2013-08-22 02:27:00,73.4,69.6,0.00,South,180,9.3,12.7,88,0.00,,,0.00,VWS V13.00,2013-08-22 06:27:00,
2013-08-22 02:32:00,73.4,69.6,0.00,South,180,10.0,12.7,88,0.00,,,0.00,VWS V13.00,2013-08-22 06:32:00,
2013-08-22 02:37:00,73.4,69.6,0.00,South,180,7.8,12.7,88,0.00,,,0.00,VWS V13.00,2013-08-22 06:37:00,
2013-08-22 02:40:00,73.2,69.4,0.00,SE,135,10.7,12.7,88,0.00,,,0.00,VWS V13.00,2013-08-22 06:40:00,
2013-08-22 02:42:00,73.2,69.4,0.00,South,180,11.4,11.4,88,0.00,,,0.00,VWS V13.00,2013-08-22 06:42:00,
2013-08-22 02:47:00,73.2,69.4,0.00,SSE,158,14.7,14.7,88,0.00,,,0.00,VWS V13.00,2013-08-22 06:47:00,
2013-08-22 02:52:00,73.2,69.4,0.00,SSE,158,9.1,14.7,88,0.00,,,0.00,VWS V13.00,2013-08-22 06:52:00,
2013-08-22 02:57:00,73.2,69.4,0.00,SSE,158,4.4,14.7,88,0.00,,,0.00,VWS V13.00,2013-08-22 06:57:00,
2013-08-22 03:00:00,73.2,69.4,0.00,SSW,202,5.5,14.7,88,0.00,,,0.00,VWS V13.00,2013-08-22 07:00:00,
2013-08-22 03:02:00,73.2,69.4,0.00,SSW,202,5.5,5.5,88,0.00,,,0.00,VWS V13.00,2013-08-22 07:02:00,
2013-08-22 03:07:00,73.2,69.4,0.00,SSE,158,7.3,7.3,88,0.00,,,0.00,VWS V13.00,2013-08-22 07:07:00,
2013-08-22 03:12:00,73.2,69.4,0.00,SE,135,5.8,9.1,88,0.00,,,0.00,VWS V13.00,2013-08-22 07:12:00,
2013-08-22 03:17:00,73.2,69.4,0.00,South,180,10.2,10.2,88,0.00,,,0.00,VWS V13.00,2013-08-22 07:17:00,
2013-08-22 03:20:00,73.2,69.4,0.00,SSE,158,9.6,10.2,88,0.00,,,0.00,VWS V13.00,2013-08-22 07:20:00,
2013-08-22 03:22:00,73.2,69.4,0.00,SSE,158,7.1,9.6,88,0.00,,,0.00,VWS V13.00,2013-08-22 07:22:00,
2013-08-22 03:27:00,73.0,69.2,0.00,ESE,112,11.6,11.6,88,0.00,,,0.00,VWS V13.00,2013-08-22 07:27:00,
2013-08-22 03:32:00,73.0,69.2,0.00,SSE,158,11.8,11.8,88,0.00,,,0.00,VWS V13.00,2013-08-22 07:32:00,
2013-08-22 03:37:00,73.0,69.6,0.00,SE,135,4.0,11.8,89,0.00,,,0.00,VWS V13.00,2013-08-22 07:37:00,
2013-08-22 03:40:00,73.0,69.6,0.00,SSE,158,8.9,11.8,89,0.00,,,0.00,VWS V13.00,2013-08-22 07:40:00,
2013-08-22 03:42:00,73.0,69.6,0.00,South,180,8.5,8.9,89,0.00,,,0.00,VWS V13.00,2013-08-22 07:42:00,
2013-08-22 03:47:00,73.0,69.6,0.00,South,180,5.1,10.5,89,0.00,,,0.00,VWS V13.00,2013-08-22 07:47:00,
2013-08-22 03:52:00,73.0,69.6,0.00,SSE,158,7.6,10.5,89,0.00,,,0.00,VWS V13.00,2013-08-22 07:52:00,
2013-08-22 03:57:00,73.0,69.6,0.00,SSE,158,8.2,10.5,89,0.00,,,0.00,VWS V13.00,2013-08-22 07:57:00,
2013-08-22 04:00:00,72.8,69.4,0.00,SSE,158,6.7,10.5,89,0.00,,,0.00,VWS V13.00,2013-08-22 08:00:00,
2013-08-22 04:02:00,72.8,69.4,0.00,SSE,158,6.7,6.7,89,0.00,,,0.00,VWS V13.00,2013-08-22 08:02:00,
2013-08-22 04:07:00,72.6,69.5,0.00,SSE,158,9.8,14.9,90,0.00,,,0.00,VWS V13.00,2013-08-22 08:07:00,
2013-08-22 04:12:00,72.6,69.5,0.00,SE,135,5.8,14.9,90,0.00,,,0.00,VWS V13.00,2013-08-22 08:12:00,
2013-08-22 04:17:00,72.6,69.5,0.00,South,180,4.2,14.9,90,0.00,,,0.00,VWS V13.00,2013-08-22 08:17:00,
2013-08-22 04:20:00,72.6,69.5,0.00,SSE,158,4.4,14.9,90,0.00,,,0.00,VWS V13.00,2013-08-22 08:20:00,
2013-08-22 04:22:00,72.5,69.4,0.00,South,180,5.3,5.3,90,0.00,,,0.00,VWS V13.00,2013-08-22 08:22:00,
2013-08-22 04:27:00,72.5,69.4,0.00,ESE,112,3.8,8.5,90,0.02,,,0.02,VWS V13.00,2013-08-22 08:27:00,
2013-08-22 04:32:00,72.5,69.4,0.00,SE,135,5.1,8.5,90,0.02,,,0.02,VWS V13.00,2013-08-22 08:32:00,
2013-08-22 04:37:00,72.5,69.4,0.00,SSE,158,3.8,8.5,90,0.02,,,0.02,VWS V13.00,2013-08-22 08:37:00,
2013-08-22 04:40:00,72.3,69.2,0.00,South,180,7.3,8.5,90,0.02,,,0.02,VWS V13.00,2013-08-22 08:40:00,
2013-08-22 04:42:00,72.3,69.2,0.00,SE,135,7.1,7.3,90,0.02,,,0.02,VWS V13.00,2013-08-22 08:42:00,
2013-08-22 04:47:00,72.3,69.2,0.00,South,180,4.6,7.3,90,0.02,,,0.02,VWS V13.00,2013-08-22 08:47:00,
2013-08-22 04:52:00,72.3,69.2,0.00,South,180,7.6,7.6,90,0.02,,,0.02,VWS V13.00,2013-08-22 08:52:00,
2013-08-22 04:57:00,72.3,69.2,0.00,SSE,158,0.0,7.6,90,0.02,,,0.02,VWS V13.00,2013-08-22 08:57:00,
2013-08-22 05:00:00,72.3,69.2,0.00,SSE,158,8.0,8.0,90,0.02,,,0.02,VWS V13.00,2013-08-22 09:00:00,
2013-08-22 05:02:00,72.3,69.2,0.00,SSE,158,8.0,8.0,90,0.02,,,0.02,VWS V13.00,2013-08-22 09:02:00,
2013-08-22 05:07:00,72.3,69.2,0.00,SSE,158,6.9,8.0,90,0.02,,,0.02,VWS V13.00,2013-08-22 09:07:00,
2013-08-22 05:13:00,72.3,69.2,0.00,South,180,7.6,8.5,90,0.04,,,0.04,VWS V13.00,2013-08-22 09:13:00,
2013-08-22 05:18:00,72.3,69.2,0.00,South,180,7.3,8.5,90,0.04,,,0.04,VWS V13.00,2013-08-22 09:18:00,
2013-08-22 05:20:00,72.3,69.2,0.00,SSE,158,9.3,9.3,90,0.04,,,0.04,VWS V13.00,2013-08-22 09:20:00,
2013-08-22 05:23:00,72.3,69.2,0.00,South,180,4.0,9.3,90,0.04,,,0.04,VWS V13.00,2013-08-22 09:23:00,
2013-08-22 05:28:00,72.3,69.2,0.00,SSE,158,8.2,10.2,90,0.02,,,0.04,VWS V13.00,2013-08-22 09:28:00,
2013-08-22 05:33:00,72.1,69.0,0.00,SSE,158,4.6,10.2,90,0.02,,,0.04,VWS V13.00,2013-08-22 09:33:00,
2013-08-22 05:38:00,71.9,69.1,0.00,SSE,158,5.3,10.2,91,0.02,,,0.04,VWS V13.00,2013-08-22 09:38:00,
2013-08-22 05:40:00,71.9,68.8,0.00,SSE,158,0.0,10.2,90,0.02,,,0.04,VWS V13.00,2013-08-22 09:40:00,
2013-08-22 05:43:00,71.9,68.8,0.00,SSW,202,0.0,0.0,90,0.02,,,0.04,VWS V13.00,2013-08-22 09:43:00,
2013-08-22 05:48:00,71.9,68.8,0.00,South,180,0.0,0.0,90,0.02,,,0.04,VWS V13.00,2013-08-22 09:48:00,
2013-08-22 05:53:00,71.9,68.8,0.00,SSE,158,0.0,0.0,90,0.02,,,0.04,VWS V13.00,2013-08-22 09:53:00,
2013-08-22 05:58:00,72.1,69.0,0.00,SE,135,4.0,4.0,90,0.02,,,0.04,VWS V13.00,2013-08-22 09:58:00,
2013-08-22 06:00:00,72.1,69.3,0.00,SSE,158,6.4,6.4,91,0.02,,,0.04,VWS V13.00,2013-08-22 10:00:00,
2013-08-22 06:03:00,72.1,69.3,0.00,SSE,158,6.4,6.4,91,0.02,,,0.04,VWS V13.00,2013-08-22 10:03:00,
2013-08-22 06:08:00,72.1,69.3,0.00,South,180,4.9,7.6,91,0.00,,,0.04,VWS V13.00,2013-08-22 10:08:00,
2013-08-22 06:13:00,72.1,69.3,0.00,South,180,2.6,7.6,91,0.00,,,0.04,VWS V13.00,2013-08-22 10:13:00,
2013-08-22 06:18:00,72.1,69.3,0.00,SE,135,0.0,7.6,91,0.00,,,0.04,VWS V13.00,2013-08-22 10:18:00,
2013-08-22 06:20:00,72.1,69.3,0.00,South,180,6.0,7.6,91,0.00,,,0.04,VWS V13.00,2013-08-22 10:20:00,
2013-08-22 06:23:00,72.1,69.3,0.00,SE,135,5.1,6.0,91,0.00,,,0.04,VWS V13.00,2013-08-22 10:23:00,
2013-08-22 06:28:00,72.1,69.3,0.00,SSE,158,4.6,6.0,91,0.00,,,0.04,VWS V13.00,2013-08-22 10:28:00,
2013-08-22 06:33:00,72.3,69.5,0.00,SE,135,2.9,7.6,91,0.00,,,0.04,VWS V13.00,2013-08-22 10:33:00,
2013-08-22 06:38:00,72.3,69.5,0.00,South,180,8.9,8.9,91,0.00,,,0.04,VWS V13.00,2013-08-22 10:38:00,
2013-08-22 06:40:00,72.3,69.5,0.00,SE,135,3.8,8.9,91,0.00,,,0.04,VWS V13.00,2013-08-22 10:40:00,
2013-08-22 06:43:00,72.3,69.5,0.00,SSE,158,3.8,3.8,91,0.00,,,0.04,VWS V13.00,2013-08-22 10:43:00,
2013-08-22 06:48:00,72.3,69.5,0.00,SE,135,8.2,8.2,91,0.00,,,0.04,VWS V13.00,2013-08-22 10:48:00,
2013-08-22 07:00:00,72.3,69.5,0.00,SSE,158,7.3,8.2,91,0.00,,,0.04,VWS V13.00,2013-08-22 11:00:00,
2013-08-22 07:20:00,72.5,69.7,0.00,SE,135,6.9,11.1,91,0.00,,,0.04,VWS V13.00,2013-08-22 11:20:00,
2013-08-22 07:40:00,72.5,69.7,0.00,SSE,158,6.2,9.3,91,0.00,,,0.04,VWS V13.00,2013-08-22 11:40:00,
2013-08-22 08:00:00,72.6,69.5,0.00,South,180,8.7,8.7,90,0.00,,,0.04,VWS V13.00,2013-08-22 12:00:00,
2013-08-22 08:20:00,72.6,69.5,0.00,SSE,158,9.3,9.3,90,0.00,,,0.04,VWS V13.00,2013-08-22 12:20:00,
2013-08-22 08:27:00,72.6,69.5,0.00,SE,135,3.5,10.7,90,0.00,,,0.04,VWS V13.00,2013-08-22 12:27:00,
2013-08-22 08:32:00,73.0,69.9,0.00,SSE,158,6.0,10.7,90,0.00,,,0.04,VWS V13.00,2013-08-22 12:32:00,
2013-08-22 08:38:00,73.0,69.9,0.00,South,180,10.5,10.7,90,0.00,,,0.04,VWS V13.00,2013-08-22 12:38:00,
2013-08-22 08:40:00,73.0,69.9,0.00,SE,135,6.2,10.7,90,0.00,,,0.04,VWS V13.00,2013-08-22 12:40:00,
2013-08-22 08:43:00,73.0,69.9,0.00,South,180,4.2,6.2,90,0.00,,,0.04,VWS V13.00,2013-08-22 12:43:00,
2013-08-22 08:48:00,73.0,69.9,0.00,South,180,8.2,10.9,90,0.00,,,0.04,VWS V13.00,2013-08-22 12:48:00,
2013-08-22 08:53:00,73.2,70.1,0.00,South,180,9.3,10.9,90,0.00,,,0.04,VWS V13.00,2013-08-22 12:53:00,
2013-08-22 08:58:00,73.2,70.4,0.00,SSE,158,6.0,10.9,91,0.00,,,0.04,VWS V13.00,2013-08-22 12:58:00,
2013-08-22 09:00:00,73.2,70.4,0.00,SSE,158,7.8,7.8,91,0.00,,,0.04,VWS V13.00,2013-08-22 13:00:00,
2013-08-22 09:05:00,73.4,70.6,0.00,SE,135,5.1,7.8,91,0.00,,,0.04,VWS V13.00,2013-08-22 13:05:00,
2013-08-22 09:10:00,73.5,70.7,0.00,SSE,158,13.6,13.6,91,0.00,,,0.04,VWS V13.00,2013-08-22 13:10:00,
2013-08-22 09:15:00,73.5,70.7,0.00,ESE,112,5.1,13.6,91,0.00,,,0.04,VWS V13.00,2013-08-22 13:15:00,
2013-08-22 09:20:00,73.7,70.9,0.00,South,180,5.3,5.3,91,0.00,,,0.04,VWS V13.00,2013-08-22 13:20:00,
2013-08-22 09:25:00,73.9,70.8,0.00,SSE,158,6.7,12.0,90,0.00,,,0.04,VWS V13.00,2013-08-22 13:25:00,
2013-08-22 09:30:00,74.1,71.0,0.00,SSW,202,2.9,12.0,90,0.00,,,0.04,VWS V13.00,2013-08-22 13:30:00,
2013-08-22 09:35:00,74.3,71.2,0.00,SSE,158,2.2,12.0,90,0.00,,,0.04,VWS V13.00,2013-08-22 13:35:00,
2013-08-22 09:40:00,74.8,71.7,0.00,ESE,112,0.0,0.0,90,0.00,,,0.04,VWS V13.00,2013-08-22 13:40:00,
2013-08-22 09:45:00,75.2,71.7,0.00,SE,135,3.8,3.8,89,0.00,,,0.04,VWS V13.00,2013-08-22 13:45:00,
2013-08-22 09:50:00,75.7,72.2,0.00,SSW,202,2.9,4.6,89,0.00,,,0.04,VWS V13.00,2013-08-22 13:50:00,
2013-08-22 09:55:00,76.1,71.9,0.00,SSE,158,0.0,4.6,87,0.00,,,0.04,VWS V13.00,2013-08-22 13:55:00,
2013-08-22 10:00:00,76.6,72.1,0.00,South,180,0.0,4.6,86,0.00,,,0.04,VWS V13.00,2013-08-22 14:00:00,
2013-08-22 10:01:00,76.6,72.1,0.00,South,180,0.0,0.0,86,0.00,,,0.04,VWS V13.00,2013-08-22 14:01:00,
2013-08-22 10:06:00,76.8,71.9,0.00,South,180,3.3,3.3,85,0.00,,,0.04,VWS V13.00,2013-08-22 14:06:00,
2013-08-22 10:11:00,77.1,71.5,0.00,SSW,202,5.1,6.9,83,0.00,,,0.04,VWS V13.00,2013-08-22 14:11:00,
2013-08-22 10:16:00,76.8,70.9,0.00,SSE,158,3.5,6.9,82,0.00,,,0.04,VWS V13.00,2013-08-22 14:16:00,
2013-08-22 10:20:00,76.8,70.9,0.00,SE,135,6.0,6.9,82,0.00,,,0.04,VWS V13.00,2013-08-22 14:20:00,
2013-08-22 10:21:00,76.8,70.9,0.00,SE,135,6.0,6.0,82,0.00,,,0.04,VWS V13.00,2013-08-22 14:21:00,
2013-08-22 10:26:00,77.3,71.7,0.00,South,180,1.5,6.7,83,0.00,,,0.04,VWS V13.00,2013-08-22 14:26:00,
2013-08-22 10:31:00,77.7,71.4,0.00,SSE,158,0.0,6.7,81,0.00,,,0.04,VWS V13.00,2013-08-22 14:31:00,
2013-08-22 10:36:00,78.6,72.3,0.00,SSE,158,0.0,6.7,81,0.00,,,0.04,VWS V13.00,2013-08-22 14:36:00,
2013-08-22 10:40:00,78.9,71.8,0.00,South,180,4.6,6.7,79,0.00,,,0.04,VWS V13.00,2013-08-22 14:40:00,
2013-08-22 10:41:00,78.9,71.8,0.00,South,180,4.6,4.6,79,0.00,,,0.04,VWS V13.00,2013-08-22 14:41:00,
2013-08-22 10:46:00,78.9,71.8,0.00,South,180,4.4,8.9,79,0.00,,,0.04,VWS V13.00,2013-08-22 14:46:00,
2013-08-22 10:51:00,78.4,71.3,0.00,SSW,202,5.1,10.2,79,0.00,,,0.04,VWS V13.00,2013-08-22 14:51:00,
2013-08-22 10:56:00,77.7,70.7,0.00,SSE,158,5.5,10.2,79,0.00,,,0.04,VWS V13.00,2013-08-22 14:56:00,
2013-08-22 11:00:00,77.1,70.5,0.00,SSE,158,6.2,10.2,80,0.00,,,0.04,VWS V13.00,2013-08-22 15:00:00,
2013-08-22 11:01:00,77.1,70.8,0.00,SSE,158,7.1,7.1,81,0.00,,,0.04,VWS V13.00,2013-08-22 15:01:00,
2013-08-22 11:06:00,76.6,70.7,0.00,South,180,7.3,7.3,82,0.00,,,0.04,VWS V13.00,2013-08-22 15:06:00,
2013-08-22 11:11:00,76.6,70.7,0.00,SE,135,2.4,7.3,82,0.00,,,0.04,VWS V13.00,2013-08-22 15:11:00,
2013-08-22 11:16:00,76.4,70.5,0.00,SE,135,7.6,9.1,82,0.00,,,0.04,VWS V13.00,2013-08-22 15:16:00,
2013-08-22 11:20:00,76.2,70.3,0.00,South,180,13.4,13.4,82,0.00,,,0.04,VWS V13.00,2013-08-22 15:20:00,
2013-08-22 11:21:00,76.2,70.3,0.00,South,180,9.8,13.4,82,0.00,,,0.04,VWS V13.00,2013-08-22 15:21:00,
2013-08-22 11:26:00,76.1,70.2,0.00,South,180,9.1,14.5,82,0.00,,,0.04,VWS V13.00,2013-08-22 15:26:00,
2013-08-22 11:31:00,76.1,69.8,0.00,South,180,14.0,14.5,81,0.00,,,0.04,VWS V13.00,2013-08-22 15:31:00,
2013-08-22 11:36:00,75.9,69.3,0.00,South,180,5.1,14.5,80,0.00,,,0.04,VWS V13.00,2013-08-22 15:36:00,
2013-08-22 11:40:00,76.1,69.8,0.00,ESE,112,14.3,14.5,81,0.00,,,0.04,VWS V13.00,2013-08-22 15:40:00,
2013-08-22 11:41:00,76.1,69.8,0.00,ESE,112,14.3,14.3,81,0.00,,,0.04,VWS V13.00,2013-08-22 15:41:00,
2013-08-22 11:46:00,76.1,69.8,0.00,East,90,4.0,14.3,81,0.00,,,0.04,VWS V13.00,2013-08-22 15:46:00,
2013-08-22 11:51:00,76.4,70.1,0.00,SE,135,1.5,14.3,81,0.00,,,0.04,VWS V13.00,2013-08-22 15:51:00,
2013-08-22 11:56:00,76.6,70.3,0.00,South,180,5.3,14.3,81,0.00,,,0.04,VWS V13.00,2013-08-22 15:56:00,
2013-08-22 12:00:00,76.6,70.3,0.00,SSE,158,4.0,14.3,81,0.00,,,0.04,VWS V13.00,2013-08-22 16:00:00,
2013-08-22 12:01:00,76.6,70.3,0.00,SE,135,6.2,6.2,81,0.00,,,0.04,VWS V13.00,2013-08-22 16:01:00,
2013-08-22 12:06:00,76.6,70.3,0.00,SE,135,9.1,9.1,81,0.00,,,0.04,VWS V13.00,2013-08-22 16:06:00,
2013-08-22 12:12:00,76.4,69.8,0.00,West,270,2.2,9.1,80,0.00,,,0.04,VWS V13.00,2013-08-22 16:12:00,
2013-08-22 12:17:00,76.4,69.8,0.00,South,180,12.3,12.3,80,0.00,,,0.04,VWS V13.00,2013-08-22 16:17:00,
2013-08-22 12:20:00,75.9,68.9,0.00,SSE,158,9.6,12.3,79,0.00,,,0.04,VWS V13.00,2013-08-22 16:20:00,
2013-08-22 12:22:00,75.9,69.3,0.00,South,180,12.3,12.3,80,0.00,,,0.04,VWS V13.00,2013-08-22 16:22:00,
2013-08-22 12:27:00,75.7,69.1,0.00,South,180,10.9,12.3,80,0.00,,,0.04,VWS V13.00,2013-08-22 16:27:00,
2013-08-22 14:35:00,77.7,71.1,0.00,SE,135,10.3,10.3,80,0.00,,,0.04,VWS V13.00,2013-08-22 18:35:00,
2013-08-22 15:28:00,78.6,71.9,0.00,SSE,158,9.6,10.3,80,0.00,,,0.04,VWS V13.00,2013-08-22 19:28:00,
2013-08-22 15:33:00,78.9,72.2,0.00,South,180,12.0,12.0,80,0.00,,,0.04,VWS V13.00,2013-08-22 19:33:00,
2013-08-22 15:38:00,78.6,71.9,0.00,SSE,158,10.7,14.9,80,0.00,,,0.04,VWS V13.00,2013-08-22 19:38:00,
2013-08-22 15:40:00,78.6,71.9,0.00,South,180,10.7,14.9,80,0.00,,,0.04,VWS V13.00,2013-08-22 19:40:00,
2013-08-22 15:43:00,78.6,71.9,0.00,SSE,158,11.4,11.4,80,0.00,,,0.04,VWS V13.00,2013-08-22 19:43:00,
2013-08-22 15:48:00,77.9,71.6,0.00,SE,135,8.0,15.6,81,0.00,,,0.04,VWS V13.00,2013-08-22 19:48:00,
2013-08-22 15:53:00,77.5,71.6,0.00,South,180,9.3,15.6,82,0.00,,,0.04,VWS V13.00,2013-08-22 19:53:00,
2013-08-22 15:58:00,77.1,71.5,0.00,SSW,202,5.3,15.6,83,0.00,,,0.04,VWS V13.00,2013-08-22 19:58:00,
2013-08-22 16:00:00,76.8,71.2,0.00,South,180,8.0,15.6,83,0.00,,,0.04,VWS V13.00,2013-08-22 20:00:00,
2013-08-22 16:03:00,76.8,71.6,0.00,South,180,10.5,10.5,84,0.00,,,0.04,VWS V13.00,2013-08-22 20:03:00,
2013-08-22 16:08:00,76.8,71.6,0.00,SSE,158,11.1,11.1,84,0.00,,,0.04,VWS V13.00,2013-08-22 20:08:00,
2013-08-22 16:13:00,77.1,71.9,0.00,ESE,112,3.3,11.1,84,0.00,,,0.04,VWS V13.00,2013-08-22 20:13:00,
2013-08-22 16:18:00,77.5,71.9,0.00,SSE,158,8.9,11.1,83,0.00,,,0.04,VWS V13.00,2013-08-22 20:18:00,
2013-08-22 16:20:00,77.9,72.3,0.00,SE,135,9.1,11.1,83,0.00,,,0.04,VWS V13.00,2013-08-22 20:20:00,
2013-08-22 16:23:00,78.0,72.4,0.00,SE,135,6.2,9.1,83,0.00,,,0.04,VWS V13.00,2013-08-22 20:23:00,
2013-08-22 16:28:00,78.0,72.4,0.00,South,180,7.8,9.1,83,0.00,,,0.04,VWS V13.00,2013-08-22 20:28:00,
2013-08-22 16:33:00,78.0,72.4,0.00,SSE,158,8.9,9.1,83,0.00,,,0.04,VWS V13.00,2013-08-22 20:33:00,
2013-08-22 16:38:00,78.6,72.7,0.00,South,180,13.6,13.6,82,0.00,,,0.04,VWS V13.00,2013-08-22 20:38:00,
2013-08-22 16:40:00,78.6,72.7,0.00,South,180,10.7,13.6,82,0.00,,,0.04,VWS V13.00,2013-08-22 20:40:00,
2013-08-22 16:43:00,78.6,72.7,0.00,SSE,158,9.6,10.7,82,0.00,,,0.04,VWS V13.00,2013-08-22 20:43:00,
2013-08-22 16:48:00,78.2,72.3,0.00,SE,135,5.8,11.1,82,0.00,,,0.04,VWS V13.00,2013-08-22 20:48:00,
2013-08-22 16:53:00,78.0,72.1,0.00,SE,135,8.2,11.1,82,0.00,,,0.04,VWS V13.00,2013-08-22 20:53:00,
2013-08-22 16:58:00,77.9,72.0,0.00,SSE,158,7.6,14.9,82,0.00,,,0.04,VWS V13.00,2013-08-22 20:58:00,
2013-08-22 17:00:00,77.7,71.8,0.00,SSE,158,7.6,14.9,82,0.00,,,0.04,VWS V13.00,2013-08-22 21:00:00,
2013-08-22 17:03:00,77.7,71.8,0.00,SE,135,6.0,9.1,82,0.00,,,0.04,VWS V13.00,2013-08-22 21:03:00,
2013-08-22 17:08:00,77.7,71.8,0.00,South,180,11.4,11.4,82,0.00,,,0.04,VWS V13.00,2013-08-22 21:08:00,
2013-08-22 17:14:00,77.7,71.8,0.00,SSE,158,9.8,11.4,82,0.00,,,0.04,VWS V13.00,2013-08-22 21:14:00,
2013-08-22 17:19:00,77.7,71.8,0.00,South,180,1.7,11.4,82,0.00,,,0.04,VWS V13.00,2013-08-22 21:19:00,
2013-08-22 17:20:00,77.7,71.8,0.00,South,180,5.1,11.4,82,0.00,,,0.04,VWS V13.00,2013-08-22 21:20:00,
2013-08-22 17:24:00,77.5,71.6,0.00,SSW,202,8.9,8.9,82,0.00,,,0.04,VWS V13.00,2013-08-22 21:24:00,
2013-08-22 17:29:00,77.3,71.0,0.00,WNW,292,0.0,8.9,81,0.00,,,0.04,VWS V13.00,2013-08-22 21:29:00,
2013-08-22 17:34:00,77.5,71.2,0.00,SW,225,0.0,8.9,81,0.00,,,0.04,VWS V13.00,2013-08-22 21:34:00,
2013-08-22 17:39:00,77.7,71.0,0.00,NNW,338,0.0,8.9,80,0.00,,,0.04,VWS V13.00,2013-08-22 21:39:00,
2013-08-22 17:40:00,77.9,71.2,0.00,WNW,292,0.0,8.9,80,0.02,,,0.06,VWS V13.00,2013-08-22 21:40:00,
2013-08-22 17:44:00,77.9,70.9,0.00,WNW,292,0.0,0.0,79,0.04,,,0.08,VWS V13.00,2013-08-22 21:44:00,
2013-08-22 17:49:00,77.7,71.0,0.00,West,270,5.1,5.1,80,0.06,,,0.10,VWS V13.00,2013-08-22 21:49:00,
2013-08-22 17:54:00,77.5,70.5,0.00,SSE,158,0.0,5.1,79,0.08,,,0.12,VWS V13.00,2013-08-22 21:54:00,
2013-08-22 17:59:00,76.8,69.1,0.00,SSE,158,7.8,7.8,77,0.10,,,0.14,VWS V13.00,2013-08-22 21:59:00,
2013-08-22 18:00:00,76.8,69.1,0.00,SSE,158,7.8,7.8,77,0.10,,,0.14,VWS V13.00,2013-08-22 22:00:00,
2013-08-22 18:04:00,76.2,68.8,0.00,SSW,202,7.8,7.8,78,0.10,,,0.14,VWS V13.00,2013-08-22 22:04:00,
2013-08-22 18:09:00,75.7,68.7,0.00,SSE,158,9.1,9.1,79,0.12,,,0.16,VWS V13.00,2013-08-22 22:09:00,
2013-08-22 18:14:00,75.3,68.7,0.00,ESE,112,3.8,9.1,80,0.12,,,0.16,VWS V13.00,2013-08-22 22:14:00,
2013-08-22 18:19:00,75.3,68.7,0.00,SSE,158,3.5,9.1,80,0.12,,,0.16,VWS V13.00,2013-08-22 22:19:00,
2013-08-22 18:20:00,75.5,68.9,0.00,SSE,158,2.0,9.1,80,0.12,,,0.16,VWS V13.00,2013-08-22 22:20:00,
2013-08-22 18:24:00,75.7,69.1,0.00,SE,135,0.0,2.0,80,0.12,,,0.16,VWS V13.00,2013-08-22 22:24:00,
2013-08-22 18:29:00,76.1,69.5,0.00,SSE,158,0.8,2.0,80,0.12,,,0.16,VWS V13.00,2013-08-22 22:29:00,
2013-08-22 18:34:00,76.2,69.2,0.00,South,180,2.4,2.4,79,0.12,,,0.16,VWS V13.00,2013-08-22 22:34:00,
2013-08-22 18:39:00,75.9,68.2,0.00,SSE,158,10.7,10.7,77,0.10,,,0.16,VWS V13.00,2013-08-22 22:39:00,
2013-08-22 18:40:00,75.7,67.6,0.00,SSE,158,10.7,10.7,76,0.10,,,0.16,VWS V13.00,2013-08-22 22:40:00,
2013-08-22 18:44:00,75.7,67.6,0.00,South,180,5.5,10.7,76,0.06,,,0.16,VWS V13.00,2013-08-22 22:44:00,
2013-08-22 18:49:00,75.3,67.6,0.00,SSE,158,5.8,10.7,77,0.04,,,0.16,VWS V13.00,2013-08-22 22:49:00,